contact:dominique.lefevre@mio.osupytheas.fr, maurice.libes@osupytheas.fr, didier.mallarino@osupytheas.fr
Project:EMSO http://www.emso-fr.org/EMSO-France
Depth: 2436.0 m
Title:EMSO Ligure Ouest : Data MII capteur AQUADOPP
Date,Latitude,Longitude,X_East,Y_North,Z_Up,Amplitude_X,Amplitude_Y,Amplitude_Z,Batterie,SoundSpeed,Heading,Pitch,Roll,Pressure,TIS,Speed,Direction
, degrees North, degrees East, m.s-1, m.s-1,m.s-1, 1, 1, 1, Volt, m.s-1, degree, degree, degree, dbar, degree_C, m.s-1, degree
2023-08-13T00:04:02,42.805,6.029,-0.025,0.014,-0.009,103.0,103.0,101.0,13.4,1505.2,329.0,-0.8,1.8,2471.47,13.29,0.028,299.3
2023-08-13T00:07:02,42.805,6.029,-0.018,0.027,-0.01,103.0,102.0,101.0,13.4,1505.2,351.5,-0.8,1.8,2471.465,13.29,0.032,326.3
2023-08-13T00:10:03,42.805,6.029,-0.036,0.015,-0.023,100.0,105.0,102.0,13.4,1505.2,342.2,-0.8,1.8,2471.489,13.29,0.039,292.6
2023-08-13T00:13:03,42.805,6.029,-0.035,0.008,-0.01,103.0,102.0,102.0,13.3,1505.2,326.3,-0.7,1.8,2471.436,13.29,0.035,282.9
2023-08-13T00:16:03,42.805,6.029,-0.025,0.019,-0.017,103.0,103.0,101.0,13.4,1505.2,324.2,-0.7,1.8,2471.441,13.29,0.031,307.2
2023-08-13T00:19:03,42.805,6.029,-0.034,0.011,-0.029,103.0,103.0,101.0,13.4,1505.2,332.9,-0.8,1.8,2471.457,13.29,0.035,287.9
2023-08-13T00:22:03,42.805,6.029,-0.006,0.02,0.006,103.0,102.0,101.0,13.3,1505.2,320.3,-0.8,1.8,2471.454,13.29,0.02,343.3
2023-08-13T00:25:03,42.805,6.029,-0.016,0.023,-0.038,102.0,103.0,101.0,13.3,1505.2,338.8,-0.8,1.8,2471.445,13.29,0.028,325.2
2023-08-13T00:28:03,42.805,6.029,-0.044,0.004,-0.033,102.0,103.0,101.0,13.4,1505.2,326.3,-0.8,1.8,2471.424,13.29,0.044,275.2
2023-08-13T00:31:03,42.805,6.029,-0.022,0.031,-0.014,102.0,102.0,102.0,13.4,1505.2,338.8,-0.7,1.8,2471.398,13.29,0.038,324.6
2023-08-13T00:34:03,42.805,6.029,-0.024,-0.001,-0.034,104.0,103.0,101.0,13.3,1505.2,350.1,-0.8,1.8,2471.394,13.29,0.024,267.6
2023-08-13T00:37:03,42.805,6.029,-0.019,0.009,-0.013,103.0,103.0,102.0,13.3,1505.2,344.4,-0.8,1.8,2471.444,13.29,0.021,295.3
2023-08-13T00:40:03,42.805,6.029,-0.03,0.011,-0.045,103.0,103.0,102.0,13.4,1505.2,344.8,-0.7,1.8,2471.395,13.29,0.031,290.1
2023-08-13T00:43:03,42.805,6.029,-0.032,0.007,-0.014,103.0,104.0,101.0,13.4,1505.2,333.8,-0.8,1.8,2471.4,13.29,0.032,282.3
2023-08-13T00:46:03,42.805,6.029,-0.034,0.004,-0.018,103.0,103.0,102.0,13.4,1505.2,334.8,-0.8,1.8,2471.393,13.29,0.034,276.7
2023-08-13T00:49:03,42.805,6.029,-0.013,0.019,-0.018,102.0,102.0,102.0,13.4,1505.2,332.4,-0.8,1.8,2471.438,13.29,0.023,325.6
2023-08-13T00:52:03,42.805,6.029,-0.003,0.028,0.012,103.0,102.0,101.0,13.4,1505.2,342.1,-0.7,1.8,2471.422,13.29,0.028,353.9
2023-08-13T00:55:03,42.805,6.029,-0.023,0.002,-0.057,103.0,103.0,102.0,13.4,1505.2,333.8,-0.8,1.8,2471.48,13.29,0.023,275.0
2023-08-13T00:58:03,42.805,6.029,-0.003,0.005,-0.009,104.0,102.0,101.0,13.4,1505.2,347.3,-0.8,1.8,2471.413,13.29,0.005,329.0
2023-08-13T01:04:02,42.805,6.029,-0.021,0.013,-0.021,103.0,105.0,103.0,13.4,1505.2,326.3,-0.7,1.8,2471.482,13.29,0.024,301.8
2023-08-13T01:07:03,42.805,6.029,-0.013,0.025,-0.011,104.0,101.0,101.0,13.4,1505.2,338.8,-0.8,1.8,2471.463,13.29,0.028,332.5
2023-08-13T01:10:03,42.805,6.029,-0.011,0.008,-0.004,102.0,104.0,102.0,13.4,1505.2,340.0,-0.8,1.8,2471.498,13.29,0.013,306.0
2023-08-13T01:13:03,42.805,6.029,-0.038,0.039,-0.003,104.0,102.0,101.0,13.3,1505.2,331.8,-0.8,1.8,2471.446,13.29,0.054,315.7
2023-08-13T01:16:03,42.805,6.029,-0.023,0.02,-0.024,104.0,103.0,102.0,13.3,1505.2,319.0,-0.8,1.8,2471.442,13.29,0.03,311.0
2023-08-13T01:19:03,42.805,6.029,0.003,0.019,-0.003,103.0,103.0,101.0,13.4,1505.2,341.5,-0.7,1.8,2471.398,13.29,0.019,9.0
2023-08-13T01:22:02,42.805,6.029,-0.008,0.024,-0.002,103.0,103.0,101.0,13.3,1505.2,339.3,-0.7,1.8,2471.42,13.29,0.025,341.6
2023-08-13T01:25:03,42.805,6.029,-0.01,0.013,-0.008,102.0,103.0,101.0,13.3,1505.2,329.3,-0.8,1.8,2471.437,13.29,0.016,322.4
2023-08-13T01:28:03,42.805,6.029,-0.015,0.025,-0.002,103.0,102.0,101.0,13.4,1505.2,339.1,-0.7,1.8,2471.453,13.29,0.029,329.0
2023-08-13T01:31:03,42.805,6.029,0.0,0.034,-0.009,102.0,102.0,103.0,13.4,1505.2,350.1,-0.7,1.8,2471.407,13.29,0.034,0.0
2023-08-13T01:34:03,42.805,6.029,0.0,0.003,-0.024,103.0,103.0,101.0,13.4,1505.2,320.4,-0.8,1.8,2471.444,13.29,0.003,0.0
2023-08-13T01:37:03,42.805,6.029,-0.04,0.037,-0.007,103.0,103.0,101.0,13.4,1505.2,338.9,-0.8,1.8,2471.443,13.29,0.054,312.8
2023-08-13T01:40:03,42.805,6.029,-0.015,-0.004,-0.027,103.0,104.0,102.0,13.3,1505.2,320.4,-0.8,1.8,2471.441,13.29,0.015,255.1
2023-08-13T01:43:03,42.805,6.029,-0.006,0.016,-0.013,101.0,102.0,102.0,13.4,1505.2,342.2,-0.8,1.8,2471.418,13.29,0.017,339.4
2023-08-13T01:46:03,42.805,6.029,-0.005,0.026,0.003,104.0,101.0,101.0,13.3,1505.2,331.6,-0.7,1.8,2471.384,13.29,0.026,349.1
2023-08-13T01:49:03,42.805,6.029,-0.006,0.03,-0.035,104.0,100.0,102.0,13.4,1505.2,348.9,-0.8,1.8,2471.401,13.29,0.03,348.7
2023-08-13T01:52:03,42.805,6.029,-0.011,0.019,0.004,102.0,103.0,101.0,13.4,1505.2,342.5,-0.8,1.8,2471.393,13.29,0.021,329.9
2023-08-13T01:55:03,42.805,6.029,-0.022,0.008,-0.05,103.0,104.0,102.0,13.3,1505.2,336.6,-0.8,1.8,2471.42,13.29,0.023,290.0
2023-08-13T01:58:03,42.805,6.029,-0.024,0.049,0.004,104.0,101.0,100.0,13.4,1505.2,336.0,-0.7,1.8,2471.423,13.29,0.054,333.9
2023-08-13T03:04:02,42.805,6.029,-0.007,0.022,0.008,104.0,103.0,102.0,13.4,1505.2,323.9,-0.8,1.8,2471.982,13.28,0.023,342.4
2023-08-13T03:07:03,42.805,6.029,-0.01,0.0,-0.049,103.0,103.0,101.0,13.4,1505.2,341.5,-0.8,1.8,2471.857,13.28,0.01,270.0
2023-08-13T03:10:03,42.805,6.029,0.001,0.039,0.0,105.0,103.0,102.0,13.4,1505.2,343.7,-0.8,1.8,2471.75,13.28,0.039,1.5
2023-08-13T03:13:03,42.805,6.029,-0.01,0.031,-0.015,107.0,103.0,102.0,13.3,1505.2,345.1,-0.8,1.8,2471.698,13.29,0.032,342.1
2023-08-13T03:16:03,42.805,6.029,-0.006,0.005,-0.014,103.0,104.0,101.0,13.4,1505.2,321.7,-0.7,1.8,2471.641,13.29,0.007,309.8
2023-08-13T03:19:03,42.805,6.029,-0.007,0.01,-0.001,104.0,104.0,101.0,13.4,1505.2,329.5,-0.7,1.8,2471.589,13.29,0.012,325.0
2023-08-13T03:22:03,42.805,6.029,-0.01,0.017,-0.037,104.0,103.0,102.0,13.4,1505.2,350.3,-0.7,1.8,2471.571,13.29,0.019,329.5
2023-08-13T03:25:03,42.805,6.029,-0.016,0.011,-0.005,103.0,103.0,102.0,13.4,1505.2,331.8,-0.7,1.8,2471.528,13.29,0.019,304.5
2023-08-13T03:28:03,42.805,6.029,-0.01,0.02,-0.013,104.0,102.0,103.0,13.4,1505.2,330.5,-0.8,1.8,2471.519,13.29,0.022,333.4
2023-08-13T03:31:03,42.805,6.029,0.0,0.034,-0.026,104.0,103.0,101.0,13.4,1505.2,328.8,-0.8,1.8,2471.488,13.29,0.034,0.0
2023-08-13T03:34:03,42.805,6.029,0.011,0.022,-0.037,103.0,103.0,101.0,13.4,1505.2,340.0,-0.7,1.8,2471.449,13.29,0.024,26.6
2023-08-13T03:37:03,42.805,6.029,-0.008,0.002,-0.026,103.0,102.0,101.0,13.4,1505.2,323.5,-0.8,1.8,2471.443,13.29,0.008,284.0
2023-08-13T03:40:03,42.805,6.029,-0.001,0.015,-0.015,103.0,104.0,102.0,13.4,1505.2,347.4,-0.8,1.8,2471.455,13.29,0.015,356.2
2023-08-13T03:43:03,42.805,6.029,-0.015,0.0,-0.019,102.0,103.0,101.0,13.4,1505.2,341.9,-0.7,1.8,2471.484,13.29,0.015,270.0
2023-08-13T03:46:03,42.805,6.029,-0.014,0.023,-0.029,104.0,103.0,102.0,13.3,1505.2,325.0,-0.8,1.8,2471.469,13.29,0.026,328.7
2023-08-13T03:49:03,42.805,6.029,0.004,0.043,0.011,103.0,103.0,102.0,13.4,1505.2,344.4,-0.8,1.8,2471.424,13.29,0.043,5.3
2023-08-13T03:52:03,42.805,6.029,0.021,0.006,0.008,103.0,104.0,102.0,13.4,1505.2,331.6,-0.7,1.8,2471.417,13.29,0.021,74.1
2023-08-13T03:55:03,42.805,6.029,-0.017,0.005,-0.012,104.0,102.0,102.0,13.3,1505.2,323.1,-0.8,1.8,2471.443,13.29,0.017,286.4
2023-08-13T03:58:03,42.805,6.029,-0.021,0.025,-0.009,103.0,103.0,102.0,13.4,1505.2,330.2,-0.7,1.8,2471.434,13.29,0.032,320.0
2023-08-13T04:04:02,42.805,6.029,-0.011,0.013,-0.006,103.0,102.0,101.0,13.3,1505.2,329.4,-0.8,1.8,2471.508,13.29,0.017,319.8
2023-08-13T04:07:03,42.805,6.029,-0.007,0.028,-0.021,104.0,104.0,100.0,13.3,1505.2,330.2,-0.8,1.8,2471.492,13.29,0.028,346.0
2023-08-13T04:10:03,42.805,6.029,0.006,0.016,0.012,103.0,101.0,103.0,13.3,1505.2,341.9,-0.8,1.8,2471.505,13.29,0.017,20.6
2023-08-13T04:13:03,42.805,6.029,-0.009,0.022,-0.043,103.0,103.0,102.0,13.4,1505.2,334.4,-0.8,1.8,2471.476,13.29,0.023,337.8
2023-08-13T04:16:03,42.805,6.029,-0.001,0.007,-0.016,102.0,103.0,102.0,13.4,1505.2,333.4,-0.8,1.8,2471.465,13.29,0.007,351.9
2023-08-13T04:19:03,42.805,6.029,-0.004,-0.005,-0.021,103.0,103.0,102.0,13.3,1505.2,352.0,-0.8,1.8,2471.482,13.29,0.006,218.7
2023-08-13T04:22:03,42.805,6.029,-0.007,0.001,-0.026,104.0,102.0,103.0,13.4,1505.2,321.3,-0.7,1.8,2471.477,13.29,0.007,278.1
2023-08-13T04:25:03,42.805,6.029,0.004,-0.001,-0.038,103.0,104.0,102.0,13.4,1505.2,333.4,-0.8,1.8,2471.472,13.29,0.004,104.0
2023-08-13T04:28:03,42.805,6.029,0.0,0.024,-0.016,104.0,103.0,101.0,13.4,1505.2,347.5,-0.8,1.8,2471.466,13.29,0.024,0.0
2023-08-13T04:31:03,42.805,6.029,0.002,0.014,0.01,105.0,104.0,101.0,13.4,1505.2,330.7,-0.8,1.8,2471.46,13.29,0.014,8.1
2023-08-13T04:34:03,42.805,6.029,0.007,0.031,0.004,103.0,104.0,102.0,13.3,1505.2,322.9,-0.8,1.8,2471.45,13.29,0.031,12.7
2023-08-13T04:37:03,42.805,6.029,-0.014,0.019,-0.012,103.0,103.0,102.0,13.4,1505.2,325.3,-0.7,1.8,2471.418,13.29,0.023,323.6
2023-08-13T04:40:03,42.805,6.029,0.0,0.016,-0.006,104.0,103.0,101.0,13.3,1505.2,319.7,-0.8,1.8,2471.438,13.29,0.016,0.0
2023-08-13T04:43:03,42.805,6.029,0.011,0.033,0.016,103.0,103.0,103.0,13.4,1505.2,347.4,-0.8,1.8,2471.471,13.29,0.034,18.4
2023-08-13T04:46:03,42.805,6.029,-0.007,0.017,-0.032,103.0,104.0,102.0,13.4,1505.2,340.4,-0.7,1.8,2471.455,13.29,0.018,337.6
2023-08-13T04:49:03,42.805,6.029,-0.014,0.042,0.008,103.0,103.0,102.0,13.4,1505.2,329.8,-0.8,1.8,2471.46,13.29,0.044,341.6
2023-08-13T04:52:03,42.805,6.029,-0.004,0.034,-0.004,104.0,103.0,101.0,13.4,1505.2,327.9,-0.7,1.8,2471.495,13.29,0.034,353.3
2023-08-13T04:55:03,42.805,6.029,-0.001,0.013,-0.025,103.0,103.0,101.0,13.4,1505.2,329.3,-0.8,1.8,2471.475,13.29,0.013,355.6
2023-08-13T04:58:03,42.805,6.029,-0.006,0.025,-0.005,103.0,103.0,101.0,13.4,1505.2,349.1,-0.8,1.8,2471.445,13.29,0.025,346.5
2023-08-13T05:04:03,42.805,6.029,0.006,0.018,0.004,103.0,103.0,102.0,13.4,1505.2,320.3,-0.7,1.8,2471.528,13.29,0.018,18.4
2023-08-13T05:07:03,42.805,6.029,0.027,0.02,0.007,104.0,103.0,101.0,13.4,1505.2,347.8,-0.8,1.8,2471.492,13.29,0.033,53.5
2023-08-13T05:10:03,42.805,6.029,0.008,0.007,-0.008,103.0,103.0,102.0,13.4,1505.2,348.9,-0.8,1.8,2471.519,13.29,0.01,48.8
2023-08-13T05:13:03,42.805,6.029,0.001,0.026,-0.001,102.0,103.0,102.0,13.4,1505.2,330.6,-0.8,1.8,2471.473,13.29,0.026,2.2
2023-08-13T05:16:03,42.805,6.029,0.031,0.001,-0.005,102.0,103.0,101.0,13.4,1505.2,338.3,-0.7,1.8,2471.521,13.29,0.031,88.2
2023-08-13T05:19:03,42.805,6.029,0.011,0.014,0.025,102.0,104.0,102.0,13.4,1505.2,322.9,-0.7,1.8,2471.479,13.29,0.017,38.2
2023-08-13T05:22:03,42.805,6.029,0.003,0.022,-0.014,104.0,109.0,102.0,13.4,1505.2,336.8,-0.8,1.8,2471.476,13.29,0.022,7.8
2023-08-13T05:25:03,42.805,6.029,0.006,-0.015,-0.038,103.0,103.0,102.0,13.4,1505.2,324.7,-0.8,1.8,2471.44,13.29,0.016,158.2
2023-08-13T05:28:03,42.805,6.029,0.002,0.012,0.012,104.0,102.0,102.0,13.3,1505.2,336.0,-0.8,1.8,2471.491,13.29,0.012,9.5
2023-08-13T05:31:03,42.805,6.029,0.014,0.012,0.014,103.0,104.0,101.0,13.4,1505.2,349.1,-0.8,1.8,2471.484,13.29,0.018,49.4
2023-08-13T05:34:03,42.805,6.029,0.017,0.017,0.0,104.0,104.0,101.0,13.4,1505.2,324.0,-0.8,1.8,2471.494,13.29,0.024,45.0
2023-08-13T05:37:03,42.805,6.029,0.018,0.013,0.003,104.0,102.0,101.0,13.4,1505.2,348.4,-0.8,1.8,2471.481,13.29,0.022,54.2
2023-08-13T05:40:03,42.805,6.029,0.008,0.029,0.009,103.0,102.0,101.0,13.3,1505.2,352.0,-0.8,1.8,2471.469,13.29,0.03,15.4
2023-08-13T05:43:03,42.805,6.029,0.007,-0.002,-0.019,102.0,103.0,102.0,13.4,1505.2,322.9,-0.8,1.8,2471.468,13.29,0.007,105.9
2023-08-13T05:46:03,42.805,6.029,0.026,0.01,-0.011,104.0,103.0,101.0,13.4,1505.2,344.3,-0.7,1.8,2471.47,13.29,0.027,69.0
2023-08-13T05:49:03,42.805,6.029,0.032,-0.014,-0.004,103.0,103.0,102.0,13.4,1505.2,352.0,-0.8,1.8,2471.474,13.29,0.034,113.6
2023-08-13T05:52:03,42.805,6.029,0.02,0.03,-0.012,104.0,102.0,101.0,13.4,1505.2,326.5,-0.7,1.8,2471.45,13.29,0.036,33.7
2023-08-13T05:55:03,42.805,6.029,0.038,0.001,0.019,103.0,103.0,102.0,13.4,1505.2,341.2,-0.7,1.8,2471.442,13.29,0.038,88.5
2023-08-13T05:58:03,42.805,6.029,0.007,0.003,-0.058,103.0,102.0,101.0,13.4,1505.2,343.7,-0.7,1.8,2471.488,13.29,0.007,66.8
2023-08-13T06:04:03,42.805,6.029,0.004,0.011,-0.029,103.0,102.0,102.0,13.3,1505.2,351.8,-0.8,1.8,2471.519,13.29,0.011,20.0
2023-08-13T06:07:03,42.805,6.029,-0.011,0.016,0.005,104.0,102.0,102.0,13.4,1505.2,333.4,-0.8,1.8,2471.513,13.29,0.019,325.5
2023-08-13T06:10:03,42.805,6.029,0.033,0.013,0.01,103.0,102.0,102.0,13.3,1505.2,327.8,-0.7,1.8,2471.479,13.29,0.035,68.5
2023-08-13T06:13:03,42.805,6.029,0.005,0.013,-0.018,103.0,103.0,102.0,13.4,1505.2,350.5,-0.8,1.8,2471.551,13.29,0.013,21.0
2023-08-13T06:16:03,42.805,6.029,0.003,0.015,-0.035,103.0,102.0,102.0,13.4,1505.2,334.4,-0.7,1.8,2471.486,13.29,0.015,11.3
2023-08-13T06:19:03,42.805,6.029,0.005,0.016,-0.018,104.0,103.0,101.0,13.4,1505.2,323.3,-0.8,1.8,2471.511,13.29,0.016,17.4
2023-08-13T06:22:03,42.805,6.029,0.003,0.024,-0.012,103.0,102.0,102.0,13.3,1505.2,353.0,-0.7,1.8,2471.511,13.29,0.024,7.1
2023-08-13T06:25:03,42.805,6.029,0.021,-0.001,-0.017,104.0,103.0,102.0,13.4,1505.2,335.5,-0.8,1.8,2471.46,13.29,0.021,92.7
2023-08-13T06:28:03,42.805,6.029,-0.003,0.012,-0.023,103.0,102.0,101.0,13.3,1505.2,327.9,-0.7,1.8,2471.479,13.29,0.012,346.0
2023-08-13T06:31:03,42.805,6.029,0.0,0.009,-0.011,103.0,103.0,102.0,13.4,1505.2,345.9,-0.7,1.8,2471.482,13.29,0.009,0.0
2023-08-13T06:34:03,42.805,6.029,0.014,0.028,0.0,103.0,104.0,101.0,13.3,1505.2,325.0,-0.8,1.8,2471.47,13.29,0.031,26.6
2023-08-13T06:37:03,42.805,6.029,0.014,0.005,-0.026,103.0,102.0,102.0,13.4,1505.2,334.5,-0.7,1.8,2471.442,13.29,0.014,70.4
2023-08-13T06:40:03,42.805,6.029,0.033,-0.002,-0.037,103.0,103.0,101.0,13.4,1505.2,327.9,-0.7,1.8,2471.478,13.29,0.033,93.5
2023-08-13T06:43:03,42.805,6.029,0.022,-0.005,-0.018,103.0,103.0,101.0,13.3,1505.2,348.4,-0.8,1.8,2471.449,13.29,0.022,102.8
2023-08-13T06:46:03,42.805,6.029,0.008,0.017,0.018,104.0,103.0,102.0,13.4,1505.2,324.5,-0.7,1.8,2471.513,13.29,0.018,25.2
2023-08-13T06:49:03,42.805,6.029,0.018,-0.005,-0.024,103.0,102.0,101.0,13.4,1505.2,338.8,-0.8,1.8,2471.485,13.29,0.018,105.5
2023-08-13T06:52:03,42.805,6.029,0.005,0.026,0.009,103.0,103.0,101.0,13.3,1505.2,326.5,-0.8,1.8,2471.464,13.29,0.026,10.9
2023-08-13T06:55:03,42.805,6.029,-0.01,0.019,-0.016,103.0,103.0,101.0,13.4,1505.2,342.2,-0.8,1.8,2471.461,13.29,0.021,332.2
2023-08-13T06:58:03,42.805,6.029,0.024,0.003,-0.021,104.0,103.0,102.0,13.4,1505.2,334.7,-0.8,1.8,2471.482,13.29,0.024,82.9
2023-08-13T07:01:03,42.805,6.029,0.016,0.004,-0.012,103.0,102.0,102.0,13.3,1505.2,332.5,-0.8,1.8,2471.474,13.29,0.016,76.0
2023-08-13T07:04:03,42.805,6.029,0.021,0.005,-0.04,104.0,104.0,102.0,13.4,1505.2,322.9,-0.8,1.8,2471.469,13.29,0.021,76.6
2023-08-13T07:07:03,42.805,6.029,0.029,-0.006,-0.023,103.0,103.0,101.0,13.4,1505.2,327.5,-0.8,1.8,2471.457,13.29,0.029,101.7
2023-08-13T07:10:03,42.805,6.029,0.015,-0.012,-0.05,103.0,102.0,102.0,13.4,1505.2,330.1,-0.8,1.8,2471.43,13.29,0.019,128.7
2023-08-13T07:13:03,42.805,6.029,0.008,-0.007,-0.013,103.0,102.0,101.0,13.3,1505.2,334.5,-0.7,1.8,2471.452,13.29,0.01,131.2
2023-08-13T07:16:03,42.805,6.029,-0.008,-0.011,-0.059,102.0,103.0,101.0,13.4,1505.2,342.3,-0.8,1.8,2471.43,13.29,0.013,216.0
2023-08-13T07:19:03,42.805,6.029,0.012,-0.007,-0.024,102.0,103.0,101.0,13.3,1505.2,348.2,-0.8,1.8,2471.448,13.29,0.013,120.3
2023-08-13T07:22:03,42.805,6.029,-0.01,0.006,-0.016,103.0,102.0,103.0,13.3,1505.2,329.9,-0.8,1.8,2471.451,13.29,0.011,301.0
2023-08-13T07:25:03,42.805,6.029,0.021,-0.001,-0.002,103.0,103.0,102.0,13.3,1505.2,323.8,-0.8,1.8,2471.453,13.29,0.021,92.7
2023-08-13T07:28:03,42.805,6.029,0.003,0.017,-0.013,102.0,102.0,102.0,13.4,1505.2,331.1,-0.8,1.8,2471.461,13.29,0.017,10.0
2023-08-13T07:31:03,42.805,6.029,0.006,0.004,-0.021,103.0,103.0,101.0,13.4,1505.2,327.0,-0.8,1.8,2471.43,13.29,0.007,56.3
2023-08-13T07:34:03,42.805,6.029,-0.01,-0.014,-0.01,103.0,103.0,101.0,13.4,1505.2,338.0,-0.8,1.8,2471.444,13.29,0.017,215.5
2023-08-13T07:37:03,42.805,6.029,0.008,0.014,0.007,103.0,103.0,102.0,13.3,1505.2,344.2,-0.8,1.8,2471.439,13.29,0.016,29.7
2023-08-13T07:40:03,42.805,6.029,-0.008,0.007,-0.03,103.0,102.0,103.0,13.4,1505.2,341.5,-0.8,1.8,2471.436,13.29,0.01,311.2
2023-08-13T07:43:03,42.805,6.029,0.012,-0.011,-0.038,102.0,103.0,101.0,13.4,1505.2,351.7,-0.8,1.8,2471.451,13.29,0.016,132.5
2023-08-13T07:46:03,42.805,6.029,0.007,0.005,-0.017,103.0,103.0,102.0,13.4,1505.2,322.4,-0.7,1.8,2471.447,13.29,0.008,54.5
2023-08-13T07:49:03,42.805,6.029,0.0,0.013,-0.048,103.0,103.0,101.0,13.3,1505.2,326.3,-0.8,1.8,2471.42,13.29,0.013,0.0
2023-08-13T07:52:03,42.805,6.029,0.022,-0.011,-0.027,103.0,102.0,101.0,13.4,1505.2,333.9,-0.7,1.8,2471.462,13.29,0.024,116.6
2023-08-13T07:55:03,42.805,6.029,0.012,-0.001,-0.021,102.0,102.0,102.0,13.3,1505.2,323.9,-0.8,1.8,2471.446,13.29,0.012,94.8
2023-08-13T07:58:03,42.805,6.029,0.018,0.001,0.0,103.0,104.0,102.0,13.4,1505.2,326.5,-0.8,1.8,2471.428,13.29,0.018,86.8
2023-08-13T08:04:03,42.805,6.029,-0.018,0.0,-0.036,103.0,102.0,101.0,13.4,1505.2,324.7,-0.8,1.8,2471.479,13.29,0.018,270.0
2023-08-13T08:07:03,42.805,6.029,0.024,-0.014,-0.012,104.0,101.0,101.0,13.3,1505.2,334.3,-0.8,1.8,2471.438,13.29,0.027,120.3
2023-08-13T08:10:03,42.805,6.029,0.024,-0.004,-0.015,103.0,102.0,101.0,13.3,1505.2,338.4,-0.7,1.8,2471.427,13.29,0.024,99.5
2023-08-13T08:13:03,42.805,6.029,0.008,0.006,-0.038,103.0,102.0,102.0,13.3,1505.2,331.7,-0.8,1.8,2471.48,13.29,0.01,53.1
2023-08-13T08:16:03,42.805,6.029,0.011,-0.012,-0.015,102.0,103.0,102.0,13.4,1505.2,329.7,-0.8,1.8,2471.45,13.29,0.016,137.5
2023-08-13T08:19:03,42.805,6.029,0.013,-0.014,-0.016,101.0,103.0,103.0,13.3,1505.2,350.9,-0.8,1.8,2471.468,13.29,0.019,137.1
2023-08-13T08:22:03,42.805,6.029,0.009,-0.016,-0.043,102.0,103.0,102.0,13.3,1505.2,325.0,-0.8,1.8,2471.435,13.29,0.018,150.6
2023-08-13T08:25:03,42.805,6.029,0.01,0.009,0.02,103.0,103.0,102.0,13.4,1505.2,321.8,-0.8,1.8,2471.451,13.29,0.013,48.0
2023-08-13T08:28:03,42.805,6.029,0.006,-0.001,0.005,103.0,103.0,101.0,13.4,1505.2,351.5,-0.7,1.8,2471.411,13.29,0.006,99.5
2023-08-13T08:31:03,42.805,6.029,0.029,-0.02,-0.038,104.0,102.0,102.0,13.3,1505.2,321.8,-0.8,1.8,2471.407,13.29,0.035,124.6
2023-08-13T08:34:03,42.805,6.029,0.003,-0.018,-0.026,103.0,102.0,102.0,13.4,1505.2,336.6,-0.8,1.8,2471.404,13.29,0.018,170.5
2023-08-13T08:37:03,42.805,6.029,0.014,-0.025,-0.015,102.0,102.0,102.0,13.4,1505.2,322.3,-0.7,1.8,2471.446,13.29,0.028,150.7
2023-08-13T08:40:03,42.805,6.029,0.016,-0.015,-0.01,104.0,103.0,101.0,13.4,1505.2,333.8,-0.8,1.8,2471.402,13.29,0.021,133.1
2023-08-13T08:43:03,42.805,6.029,0.012,0.0,-0.018,102.0,103.0,101.0,13.4,1505.2,352.1,-0.7,1.8,2471.409,13.29,0.012,90.0
2023-08-13T08:46:03,42.805,6.029,0.003,-0.002,-0.051,103.0,103.0,102.0,13.3,1505.2,320.3,-0.8,1.8,2471.398,13.29,0.003,123.7
2023-08-13T08:49:03,42.805,6.029,-0.005,0.011,-0.019,102.0,103.0,102.0,13.4,1505.2,322.2,-0.8,1.8,2471.392,13.29,0.012,335.6
2023-08-13T08:52:03,42.805,6.029,0.0,-0.023,-0.062,104.0,103.0,101.0,13.4,1505.2,327.4,-0.8,1.8,2471.402,13.29,0.023,180.0
2023-08-13T08:55:03,42.805,6.029,0.007,-0.013,-0.01,103.0,103.0,102.0,13.4,1505.2,337.9,-0.8,1.8,2471.427,13.29,0.014,151.7
2023-08-13T08:58:03,42.805,6.029,0.006,-0.018,-0.023,103.0,103.0,102.0,13.3,1505.2,353.2,-0.7,1.8,2471.396,13.29,0.018,161.6
2023-08-13T09:04:02,42.805,6.029,0.023,-0.015,-0.015,102.0,103.0,103.0,13.4,1505.2,348.9,-0.8,1.8,2471.444,13.28,0.027,123.1
2023-08-13T09:07:03,42.805,6.029,0.011,0.013,-0.014,103.0,103.0,102.0,13.4,1505.2,323.5,-0.8,1.8,2471.484,13.29,0.017,40.2
2023-08-13T09:10:03,42.805,6.029,0.014,-0.019,-0.024,102.0,105.0,103.0,13.4,1505.2,324.2,-0.8,1.8,2471.447,13.29,0.023,143.6
2023-08-13T09:13:03,42.805,6.029,-0.015,-0.005,-0.004,103.0,101.0,103.0,13.4,1505.2,333.9,-0.7,1.8,2471.439,13.29,0.015,251.6
2023-08-13T09:16:03,42.805,6.029,0.006,0.002,-0.019,102.0,103.0,102.0,13.3,1505.2,343.2,-0.8,1.8,2471.44,13.29,0.006,71.6
2023-08-13T09:19:03,42.805,6.029,0.014,-0.011,-0.036,102.0,103.0,102.0,13.4,1505.2,326.6,-0.8,1.8,2471.41,13.29,0.017,128.2
2023-08-13T09:22:03,42.805,6.029,0.008,-0.02,-0.044,104.0,103.0,100.0,13.4,1505.2,325.3,-0.8,1.8,2471.466,13.29,0.021,158.2
2023-08-13T09:25:03,42.805,6.029,0.025,-0.006,-0.022,103.0,103.0,102.0,13.4,1505.2,344.0,-0.7,1.8,2471.421,13.29,0.025,103.5
2023-08-13T09:28:03,42.805,6.029,0.036,-0.028,-0.002,103.0,103.0,102.0,13.4,1505.2,345.0,-0.7,1.8,2471.409,13.29,0.045,127.9
2023-08-13T09:31:03,42.805,6.029,0.022,-0.015,0.003,104.0,103.0,102.0,13.4,1505.2,328.8,-0.7,1.8,2471.468,13.29,0.026,124.3
2023-08-13T09:34:03,42.805,6.029,0.02,-0.018,-0.037,105.0,103.0,102.0,13.4,1505.2,318.4,-0.8,1.8,2471.404,13.29,0.026,132.0
2023-08-13T09:37:03,42.805,6.029,0.007,-0.008,-0.013,103.0,103.0,102.0,13.4,1505.2,345.0,-0.8,1.8,2471.375,13.29,0.01,138.8
2023-08-13T09:40:03,42.805,6.029,0.006,-0.001,-0.044,104.0,103.0,102.0,13.3,1505.2,326.0,-0.8,1.8,2471.421,13.29,0.006,99.5
2023-08-13T09:43:03,42.805,6.029,0.043,-0.022,0.0,103.0,103.0,102.0,13.3,1505.2,348.9,-0.8,1.8,2471.386,13.29,0.048,117.1
2023-08-13T09:46:03,42.805,6.029,0.04,-0.018,0.041,103.0,102.0,102.0,13.4,1505.2,344.8,-0.8,1.8,2471.435,13.29,0.043,114.2
2023-08-13T09:49:03,42.805,6.029,0.025,-0.04,0.013,103.0,103.0,103.0,13.4,1505.2,340.0,-0.8,1.8,2471.397,13.29,0.047,148.0
2023-08-13T09:52:03,42.805,6.029,-0.002,0.0,-0.041,103.0,103.0,103.0,13.4,1505.2,340.0,-0.8,1.8,2471.409,13.29,0.002,270.0
2023-08-13T09:55:03,42.805,6.029,0.022,-0.024,-0.022,103.0,103.0,102.0,13.4,1505.2,330.5,-0.8,1.8,2471.404,13.29,0.032,137.5
2023-08-13T09:58:03,42.805,6.029,0.03,-0.009,-0.02,103.0,102.0,102.0,13.4,1505.2,329.9,-0.8,1.8,2471.402,13.29,0.031,106.7
2023-08-13T10:04:03,42.805,6.029,0.025,-0.026,-0.044,103.0,103.0,103.0,13.4,1505.2,332.9,-0.8,1.8,2471.466,13.28,0.036,136.1
2023-08-13T10:07:03,42.805,6.029,0.026,-0.019,-0.024,103.0,103.0,101.0,13.3,1505.2,327.8,-0.8,1.9,2471.414,13.28,0.032,126.2
2023-08-13T10:10:03,42.805,6.029,-0.004,-0.014,-0.03,103.0,103.0,101.0,13.4,1505.2,332.0,-0.7,1.8,2471.418,13.29,0.014,195.9
2023-08-13T10:13:03,42.805,6.029,-0.004,-0.011,-0.028,105.0,103.0,102.0,13.4,1505.2,349.3,-0.8,1.8,2471.418,13.29,0.011,200.0
2023-08-13T10:16:03,42.805,6.029,0.0,-0.015,0.003,103.0,103.0,102.0,13.4,1505.2,345.2,-0.7,1.8,2471.406,13.29,0.015,180.0
2023-08-13T10:19:03,42.805,6.029,0.022,0.009,-0.012,103.0,104.0,101.0,13.4,1505.2,340.0,-0.8,1.8,2471.4,13.29,0.023,67.8
2023-08-13T10:22:03,42.805,6.029,0.013,-0.004,-0.039,104.0,103.0,102.0,13.4,1505.2,338.0,-0.8,1.8,2471.399,13.29,0.013,107.1
2023-08-13T10:25:03,42.805,6.029,-0.001,0.001,-0.046,103.0,103.0,102.0,13.4,1505.2,345.0,-0.8,1.8,2471.388,13.29,0.001,315.0
2023-08-13T10:28:03,42.805,6.029,-0.002,-0.031,-0.054,103.0,104.0,102.0,13.3,1505.2,326.3,-0.8,1.8,2471.412,13.29,0.031,183.7
2023-08-13T10:31:03,42.805,6.029,0.006,-0.009,-0.033,103.0,102.0,102.0,13.3,1505.2,329.0,-0.7,1.8,2471.409,13.29,0.01,146.3
2023-08-13T10:34:03,42.805,6.029,0.024,-0.033,-0.022,103.0,102.0,102.0,13.3,1505.2,345.4,-0.8,1.8,2471.344,13.29,0.04,144.0
2023-08-13T10:37:03,42.805,6.029,0.017,-0.021,-0.043,104.0,101.0,102.0,13.4,1505.2,329.2,-0.8,1.8,2471.375,13.29,0.027,141.0
2023-08-13T10:40:03,42.805,6.029,-0.01,-0.009,-0.02,104.0,102.0,101.0,13.4,1505.2,340.9,-0.7,1.8,2471.357,13.29,0.013,228.0
2023-08-13T10:43:03,42.805,6.029,0.001,0.007,-0.036,104.0,103.0,101.0,13.4,1505.2,335.6,-0.7,1.8,2471.405,13.29,0.007,8.1
2023-08-13T10:46:03,42.805,6.029,0.001,-0.012,-0.034,103.0,103.0,102.0,13.4,1505.2,325.3,-0.8,1.8,2471.367,13.29,0.012,175.2
2023-08-13T10:49:03,42.805,6.029,0.006,-0.011,-0.032,103.0,102.0,102.0,13.4,1505.2,339.5,-0.7,1.8,2471.38,13.29,0.012,151.4
2023-08-13T10:52:03,42.805,6.029,0.0,-0.017,-0.029,104.0,102.0,102.0,13.3,1505.2,347.4,-0.8,1.8,2471.387,13.29,0.017,180.0
2023-08-13T10:55:03,42.805,6.029,0.022,-0.032,-0.025,104.0,103.0,100.0,13.4,1505.2,324.0,-0.8,1.8,2471.395,13.29,0.038,145.5